Tracking 25378 objects as of 22-Jan-2022
HD Live streaming from Space Station
objects crossing your sky now

THOR ABLESTAR DEB

Track THOR ABLESTAR DEB now!
10-day predictions


NORAD ID: 13511
Int'l Code: 1961-015KU
Perigee: 923.5 km
Apogee: 1,114.1 km
Inclination: 65.8 °
Period: 105.4 minutes
Semi major axis: 7389 km
RCS: 0.0083 m2 (small)
Launch date: June 29, 1961
Source: United States (US)
Launch site: AIR FORCE EASTERN TEST RANGE (AFETR)

Note: This is SATELLITE DEBRIS
aabbcc
Your satellite tracking list
Your tracking list is empty




NASA's NSSDC Master Catalog

Two Line Element Set (TLE):
1 13511U 61015KU  22022.21853873  .00000051  00000-0  14769-3 0  9995
2 13511  65.8409 179.0815 0128957 238.8634 298.9450 13.66633052 71417
Source of the keplerian elements: AFSPC